| time (UTC) | temp F | wind direction | speed MPH | gust MPH | rain 1hr in | rain 24hr in | rain mn in | humidity % | barometer mb |
| 20260504141023 | 76 | 0 | 0.0 | 0.0 | 0.00 | 0.00 | 0.00 | 63 | 1017.0 |
| 20260504140521 | 75 | 0 | 0.0 | 0.0 | 0.00 | 0.00 | 0.00 | 65 | 1016.9 |
| 20260504130523 | 73 | 76 | 4.0 | 10.0 | 0.00 | 0.00 | 0.00 | 74 | 1016.7 |
| 20260504110520 | 63 | 0 | 0.0 | 2.0 | 0.00 | 0.00 | 0.00 | 90 | 1015.7 |
| 20260504100519 | 64 | 0 | 0.0 | 1.0 | 0.00 | 0.00 | 0.00 | 89 | 1015.5 |
| 20260504081541 | 66 | 0 | 0.0 | 2.0 | 0.00 | 0.04 | 0.00 | 86 | 1015.4 |
| 20260504081023 | 66 | 0 | 0.0 | 2.0 | 0.00 | 0.04 | 0.00 | 86 | 1015.5 |
| 20260504080523 | 66 | 0 | 0.0 | 1.0 | 0.00 | 0.04 | 0.00 | 86 | 1015.5 |
| 20260504050522 | 67 | 0 | 0.0 | 0.0 | 0.00 | 0.06 | 0.00 | 83 | 1016.7 |
| 20260504045521 | 67 | 0 | 0.0 | 0.0 | 0.00 | 0.06 | 0.00 | 83 | 1016.7 |
| 20260504045026 | 67 | 0 | 0.0 | 0.0 | 0.00 | 0.06 | 0.00 | 83 | 1016.8 |
| 20260504044546 | 67 | 0 | 0.0 | 0.0 | 0.00 | 0.06 | 0.00 | 83 | 1016.6 |
| 20260504044021 | 67 | 0 | 0.0 | 0.0 | 0.00 | 0.06 | 0.00 | 83 | 1016.6 |
| 20260504043523 | 67 | 0 | 0.0 | 0.0 | 0.00 | 0.06 | 0.00 | 83 | 1016.7 |
| 20260504043040 | 67 | 0 | 0.0 | 0.0 | 0.00 | 0.06 | 0.00 | 83 | 1016.7 |
| 20260504042524 | 67 | 0 | 0.0 | 0.0 | 0.00 | 0.06 | 0.00 | 83 | 1016.8 |
| 20260504042023 | 67 | 0 | 0.0 | 0.0 | 0.00 | 0.06 | 0.00 | 83 | 1016.9 |
| 20260504041540 | 67 | 0 | 0.0 | 0.0 | 0.00 | 0.06 | 0.00 | 83 | 1017.0 |
| 20260504041022 | 68 | 0 | 0.0 | 0.0 | 0.00 | 0.06 | 0.00 | 83 | 1016.9 |
| 20260504040523 | 68 | 0 | 0.0 | 0.0 | 0.00 | 0.06 | 0.00 | 83 | 1017.0 |
| 20260504040054 | 68 | 0 | 0.0 | 0.0 | 0.00 | 0.06 | 0.00 | 83 | 1016.9 |
| 20260504035524 | 68 | 0 | 0.0 | 0.0 | 0.00 | 0.06 | 0.06 | 83 | 1016.8 |
| 20260504035022 | 68 | 0 | 0.0 | 0.0 | 0.00 | 0.06 | 0.06 | 83 | 1017.1 |
| 20260504034553 | 68 | 0 | 0.0 | 0.0 | 0.00 | 0.06 | 0.06 | 83 | 1017.1 |
| 20260504034022 | 68 | 0 | 0.0 | 0.0 | 0.00 | 0.06 | 0.06 | 83 | 1017.3 |
| 20260504033522 | 68 | 0 | 0.0 | 0.0 | 0.00 | 0.06 | 0.06 | 83 | 1017.2 |
| 20260504033036 | 68 | 0 | 0.0 | 0.0 | 0.00 | 0.06 | 0.06 | 82 | 1017.3 |
| 20260504032521 | 68 | 0 | 0.0 | 0.0 | 0.00 | 0.06 | 0.06 | 82 | 1017.3 |
| 20260504032021 | 68 | 0 | 0.0 | 0.0 | 0.00 | 0.06 | 0.06 | 82 | 1017.2 |
| 20260504031541 | 68 | 0 | 0.0 | 0.0 | 0.00 | 0.06 | 0.06 | 82 | 1017.1 |
| 20260504031021 | 68 | 0 | 0.0 | 0.0 | 0.00 | 0.06 | 0.06 | 82 | 1017.2 |
| 20260504030522 | 68 | 0 | 0.0 | 0.0 | 0.00 | 0.06 | 0.06 | 82 | 1017.2 |
| 20260504030046 | 68 | 0 | 0.0 | 0.0 | 0.00 | 0.06 | 0.06 | 82 | 1017.0 |
| 20260504025522 | 68 | 0 | 0.0 | 0.0 | 0.00 | 0.06 | 0.06 | 82 | 1017.0 |
| 20260504025022 | 68 | 0 | 0.0 | 0.0 | 0.00 | 0.06 | 0.06 | 81 | 1017.1 |
| 20260504024537 | 68 | 0 | 0.0 | 0.0 | 0.00 | 0.06 | 0.06 | 81 | 1017.0 |
| 20260504024020 | 68 | 0 | 0.0 | 0.0 | 0.00 | 0.06 | 0.06 | 81 | 1017.1 |
| 20260504023520 | 68 | 0 | 0.0 | 0.0 | 0.00 | 0.06 | 0.06 | 81 | 1016.8 |
| 20260504023042 | 68 | 0 | 0.0 | 0.0 | 0.00 | 0.06 | 0.06 | 80 | 1016.8 |
| 20260504022521 | 68 | 0 | 0.0 | 0.0 | 0.00 | 0.06 | 0.06 | 80 | 1016.9 |
| 20260504022020 | 68 | 0 | 0.0 | 0.0 | 0.00 | 0.06 | 0.06 | 80 | 1016.8 |
| 20260504021542 | 69 | 0 | 0.0 | 0.0 | 0.00 | 0.06 | 0.06 | 80 | 1016.8 |
| 20260504021023 | 69 | 0 | 0.0 | 0.0 | 0.00 | 0.06 | 0.06 | 80 | 1016.7 |
| 20260504020520 | 69 | 0 | 0.0 | 0.0 | 0.00 | 0.06 | 0.06 | 80 | 1016.7 |
| 20260504020041 | 69 | 0 | 0.0 | 0.0 | 0.00 | 0.06 | 0.06 | 80 | 1016.8 |
| 20260504015524 | 69 | 0 | 0.0 | 0.0 | 0.00 | 0.06 | 0.06 | 80 | 1016.7 |
| 20260504015024 | 69 | 0 | 0.0 | 0.0 | 0.00 | 0.06 | 0.06 | 80 | 1016.7 |
| 20260504014548 | 69 | 0 | 0.0 | 0.0 | 0.00 | 0.06 | 0.06 | 79 | 1016.7 |
| 20260504014021 | 69 | 0 | 0.0 | 0.0 | 0.00 | 0.06 | 0.06 | 79 | 1016.6 |
| 20260504013520 | 69 | 0 | 0.0 | 0.0 | 0.00 | 0.06 | 0.06 | 79 | 1016.7 |
| 20260504013046 | 69 | 0 | 0.0 | 0.0 | 0.00 | 0.06 | 0.06 | 79 | 1016.8 |
| 20260504012520 | 70 | 0 | 0.0 | 0.0 | 0.00 | 0.06 | 0.06 | 79 | 1016.8 |
| 20260504012019 | 70 | 0 | 0.0 | 0.0 | 0.00 | 0.06 | 0.06 | 79 | 1016.8 |
| 20260504011536 | 70 | 0 | 0.0 | 0.0 | 0.00 | 0.06 | 0.06 | 79 | 1016.6 |
| 20260504011021 | 70 | 0 | 0.0 | 0.0 | 0.00 | 0.06 | 0.06 | 79 | 1016.6 |
| 20260504010521 | 70 | 0 | 0.0 | 0.0 | 0.00 | 0.06 | 0.06 | 79 | 1016.5 |
| 20260504010051 | 70 | 0 | 0.0 | 0.0 | 0.00 | 0.06 | 0.06 | 78 | 1016.5 |
| 20260504005523 | 70 | 0 | 0.0 | 0.0 | 0.00 | 0.06 | 0.06 | 78 | 1016.4 |
| 20260504005023 | 70 | 0 | 0.0 | 0.0 | 0.00 | 0.06 | 0.06 | 78 | 1016.3 |
| 20260504004558 | 70 | 0 | 0.0 | 0.0 | 0.00 | 0.06 | 0.06 | 77 | 1016.3 |
| 20260504004022 | 71 | 0 | 0.0 | 2.0 | 0.00 | 0.06 | 0.06 | 77 | 1016.3 |
| 20260504003523 | 71 | 0 | 0.0 | 2.0 | 0.00 | 0.06 | 0.06 | 77 | 1016.2 |
| 20260504003042 | 71 | 0 | 0.0 | 2.0 | 0.00 | 0.06 | 0.06 | 77 | 1016.1 |
| 20260504002520 | 71 | 0 | 0.0 | 1.0 | 0.00 | 0.06 | 0.06 | 77 | 1016.2 |
| 20260504002020 | 71 | 0 | 0.0 | 4.0 | 0.00 | 0.06 | 0.06 | 76 | 1016.2 |
| 20260504001540 | 71 | 0 | 0.0 | 5.0 | 0.00 | 0.06 | 0.06 | 76 | 1016.1 |
| 20260504001023 | 71 | 59 | 1.0 | 5.0 | 0.00 | 0.06 | 0.06 | 75 | 1016.0 |
| 20260504000522 | 71 | 78 | 1.0 | 5.0 | 0.00 | 0.06 | 0.06 | 75 | 1016.1 |
| 20260504000041 | 71 | 85 | 1.0 | 8.0 | 0.00 | 0.06 | 0.06 | 74 | 1016.0 |
| 20260503235525 | 71 | 64 | 1.0 | 10.0 | 0.00 | 0.07 | 0.06 | 74 | 1016.0 |
| 20260503235023 | 71 | 78 | 4.0 | 10.0 | 0.00 | 0.07 | 0.06 | 74 | 1015.8 |
| 20260503234542 | 72 | 63 | 5.0 | 10.0 | 0.00 | 0.07 | 0.06 | 74 | 1015.7 |
| 20260503234020 | 72 | 52 | 3.0 | 9.0 | 0.00 | 0.07 | 0.06 | 74 | 1015.8 |
| 20260503233526 | 72 | 61 | 3.0 | 9.0 | 0.00 | 0.07 | 0.06 | 74 | 1015.8 |
| 20260503233034 | 72 | 79 | 3.0 | 10.0 | 0.00 | 0.07 | 0.06 | 74 | 1015.8 |
| 20260503232522 | 72 | 85 | 4.0 | 10.0 | 0.00 | 0.07 | 0.06 | 74 | 1015.7 |
| 20260503232019 | 72 | 84 | 3.0 | 12.0 | 0.00 | 0.07 | 0.06 | 74 | 1015.8 |
| 20260503231541 | 72 | 73 | 3.0 | 12.0 | 0.00 | 0.07 | 0.06 | 75 | 1015.9 |
| 20260503231021 | 72 | 67 | 2.0 | 11.0 | 0.00 | 0.07 | 0.06 | 74 | 1015.9 |
| 20260503230521 | 72 | 70 | 5.0 | 11.0 | 0.00 | 0.07 | 0.06 | 74 | 1015.9 |
| 20260503230041 | 72 | 56 | 3.0 | 10.0 | 0.00 | 0.07 | 0.06 | 74 | 1015.9 |
| 20260503225520 | 72 | 74 | 3.0 | 14.0 | 0.00 | 0.08 | 0.06 | 74 | 1016.0 |
| 20260503225020 | 72 | 63 | 4.0 | 16.0 | 0.00 | 0.08 | 0.06 | 74 | 1015.8 |
| 20260503224539 | 72 | 40 | 8.0 | 16.0 | 0.00 | 0.08 | 0.06 | 73 | 1015.8 |
| 20260503224020 | 73 | 78 | 2.0 | 11.0 | 0.00 | 0.08 | 0.06 | 73 | 1015.8 |
| 20260503223520 | 73 | 47 | 3.0 | 13.0 | 0.00 | 0.08 | 0.06 | 73 | 1015.8 |
| 20260503223038 | 73 | 88 | 5.0 | 13.0 | 0.00 | 0.08 | 0.06 | 72 | 1015.7 |
| 20260503222519 | 73 | 336 | 4.0 | 12.0 | 0.00 | 0.08 | 0.06 | 73 | 1015.8 |
| 20260503222019 | 73 | 82 | 5.0 | 14.0 | 0.00 | 0.08 | 0.06 | 72 | 1015.8 |
| 20260503221545 | 73 | 88 | 5.0 | 14.0 | 0.00 | 0.08 | 0.06 | 72 | 1015.8 |
| 20260503221020 | 73 | 41 | 2.0 | 11.0 | 0.00 | 0.08 | 0.06 | 72 | 1015.7 |
| 20260503220521 | 73 | 0 | 3.0 | 13.0 | 0.00 | 0.08 | 0.06 | 73 | 1015.7 |
| 20260503220043 | 73 | 49 | 5.0 | 13.0 | 0.00 | 0.08 | 0.06 | 72 | 1015.7 |
| 20260503215523 | 73 | 81 | 6.0 | 13.0 | 0.00 | 0.10 | 0.06 | 73 | 1015.7 |
| 20260503215022 | 73 | 66 | 4.0 | 12.0 | 0.00 | 0.10 | 0.06 | 73 | 1015.7 |
| 20260503214540 | 73 | 72 | 2.0 | 12.0 | 0.00 | 0.10 | 0.06 | 73 | 1015.7 |
| 20260503214023 | 73 | 92 | 4.0 | 12.0 | 0.00 | 0.10 | 0.06 | 71 | 1015.6 |
| 20260503213520 | 73 | 58 | 4.0 | 12.0 | 0.00 | 0.10 | 0.06 | 71 | 1015.6 |
| 20260503213057 | 74 | 77 | 7.0 | 12.0 | 0.00 | 0.10 | 0.06 | 71 | 1015.6 |
| 20260503212520 | 74 | 97 | 3.0 | 11.0 | 0.00 | 0.10 | 0.06 | 72 | 1015.6 |
| 20260503212019 | 74 | 85 | 3.0 | 16.0 | 0.00 | 0.10 | 0.06 | 72 | 1015.7 |
| 20260503211537 | 74 | 55 | 3.0 | 16.0 | 0.00 | 0.10 | 0.06 | 72 | 1015.6 |
| 20260503211020 | 73 | 80 | 9.0 | 16.0 | 0.00 | 0.10 | 0.06 | 71 | 1015.6 |
| 20260503210520 | 74 | 0 | 0.0 | 11.0 | 0.00 | 0.10 | 0.06 | 71 | 1015.7 |
| 20260503210043 | 74 | 0 | 0.0 | 14.0 | 0.00 | 0.10 | 0.06 | 71 | 1015.6 |
| 20260503205521 | 73 | 96 | 4.0 | 14.0 | 0.00 | 0.20 | 0.06 | 72 | 1015.7 |
| 20260503205021 | 73 | 99 | 5.0 | 14.0 | 0.00 | 0.20 | 0.06 | 73 | 1015.7 |
| 20260503204550 | 73 | 77 | 9.0 | 15.0 | 0.00 | 0.20 | 0.06 | 72 | 1015.7 |
| 20260503204019 | 74 | 75 | 4.0 | 15.0 | 0.00 | 0.20 | 0.06 | 73 | 1015.8 |
| 20260503203519 | 74 | 91 | 6.0 | 13.0 | 0.00 | 0.20 | 0.06 | 72 | 1015.8 |
| 20260503203040 | 74 | 81 | 5.0 | 15.0 | 0.00 | 0.20 | 0.06 | 72 | 1015.7 |
| 20260503202520 | 74 | 84 | 10.0 | 15.0 | 0.00 | 0.20 | 0.06 | 71 | 1015.7 |
| 20260503202021 | 74 | 87 | 4.0 | 11.0 | 0.00 | 0.20 | 0.06 | 71 | 1015.7 |
| 20260503201540 | 75 | 71 | 2.0 | 9.0 | 0.00 | 0.20 | 0.06 | 71 | 1015.8 |
| 20260503201022 | 74 | 0 | 0.0 | 0.0 | 0.00 | 0.20 | 0.06 | 73 | 1015.7 |
| 20260503200520 | 74 | 0 | 0.0 | 0.0 | 0.00 | 0.20 | 0.06 | 71 | 1015.9 |
| 20260503200039 | 74 | 0 | 0.0 | 0.0 | 0.00 | 0.20 | 0.06 | 71 | 1015.9 |
| 20260503195523 | 74 | 0 | 0.0 | 12.0 | 0.00 | 0.20 | 0.06 | 72 | 1015.9 |
| 20260503195020 | 75 | 0 | 3.0 | 12.0 | 0.00 | 0.20 | 0.06 | 71 | 1016.0 |
| 20260503194538 | 75 | 46 | 3.0 | 12.0 | 0.00 | 0.20 | 0.06 | 72 | 1016.1 |
| 20260503194022 | 75 | 0 | 0.0 | 10.0 | 0.00 | 0.20 | 0.06 | 70 | 1016.1 |
| 20260503193521 | 75 | 0 | 0.0 | 14.0 | 0.00 | 0.20 | 0.06 | 70 | 1016.1 |
| 20260503193046 | 75 | 76 | 5.0 | 16.0 | 0.00 | 0.20 | 0.06 | 71 | 1016.3 |
| 20260503192519 | 75 | 76 | 7.0 | 16.0 | 0.00 | 0.20 | 0.06 | 71 | 1016.3 |
| 20260503192020 | 75 | 84 | 5.0 | 16.0 | 0.00 | 0.20 | 0.06 | 73 | 1016.4 |
| 20260503191542 | 74 | 87 | 9.0 | 16.0 | 0.00 | 0.20 | 0.06 | 73 | 1016.4 |
| 20260503191020 | 74 | 69 | 5.0 | 15.0 | 0.00 | 0.20 | 0.06 | 73 | 1016.4 |
| 20260503190521 | 74 | 40 | 7.0 | 20.0 | 0.00 | 0.20 | 0.06 | 73 | 1016.5 |
| 20260503190040 | 74 | 49 | 10.0 | 20.0 | 0.00 | 0.20 | 0.06 | 72 | 1016.5 |
| 20260503185520 | 74 | 75 | 9.0 | 16.0 | 0.00 | 0.20 | 0.06 | 71 | 1016.5 |
| 20260503185020 | 74 | 84 | 7.0 | 13.0 | 0.00 | 0.20 | 0.06 | 71 | 1016.7 |
| 20260503184548 | 75 | 55 | 5.0 | 13.0 | 0.00 | 0.20 | 0.06 | 72 | 1016.8 |
| 20260503184020 | 75 | 92 | 7.0 | 13.0 | 0.00 | 0.20 | 0.06 | 71 | 1016.9 |
| 20260503183520 | 75 | 0 | 0.0 | 0.0 | 0.00 | 0.20 | 0.06 | 70 | 1017.0 |
| 20260503183059 | 75 | 0 | 0.0 | 0.0 | 0.00 | 0.20 | 0.06 | 70 | 1017.0 |
| 20260503182519 | 75 | 0 | 0.0 | 17.0 | 0.00 | 0.20 | 0.06 | 71 | 1017.2 |
| 20260503182020 | 75 | 0 | 0.0 | 17.0 | 0.00 | 0.20 | 0.06 | 72 | 1017.2 |
| 20260503181542 | 75 | 77 | 9.0 | 17.0 | 0.00 | 0.20 | 0.06 | 70 | 1017.3 |
| 20260503181020 | 75 | 94 | 9.0 | 17.0 | 0.00 | 0.20 | 0.06 | 72 | 1017.5 |
| 20260503180521 | 74 | 80 | 5.0 | 13.0 | 0.00 | 0.20 | 0.06 | 72 | 1017.5 |
| 20260503180045 | 74 | 76 | 8.0 | 17.0 | 0.00 | 0.20 | 0.06 | 71 | 1017.3 |
| 20260503175521 | 74 | 73 | 9.0 | 17.0 | 0.00 | 0.20 | 0.06 | 72 | 1017.5 |
| 20260503175020 | 74 | 86 | 4.0 | 15.0 | 0.00 | 0.20 | 0.06 | 73 | 1017.5 |
| 20260503174537 | 74 | 65 | 9.0 | 17.0 | 0.00 | 0.20 | 0.06 | 73 | 1017.6 |
| 20260503174020 | 74 | 77 | 8.0 | 17.0 | 0.00 | 0.20 | 0.06 | 71 | 1017.5 |
| 20260503173520 | 74 | 88 | 8.0 | 14.0 | 0.00 | 0.20 | 0.06 | 73 | 1017.4 |
| 20260503173101 | 73 | 98 | 5.0 | 14.0 | 0.00 | 0.20 | 0.06 | 74 | 1017.4 |
| 20260503172519 | 73 | 87 | 6.0 | 14.0 | 0.00 | 0.20 | 0.06 | 71 | 1017.4 |
| 20260503172021 | 73 | 42 | 7.0 | 14.0 | 0.00 | 0.20 | 0.06 | 73 | 1017.5 |
| 20260503171545 | 73 | 65 | 3.0 | 12.0 | 0.00 | 0.20 | 0.06 | 74 | 1017.5 |
| 20260503171020 | 73 | 49 | 4.0 | 14.0 | 0.00 | 0.20 | 0.06 | 74 | 1017.5 |
| 20260503170521 | 73 | 88 | 8.0 | 15.0 | 0.00 | 0.20 | 0.06 | 74 | 1017.6 |
| 20260503150520 | 68 | 87 | 2.0 | 10.0 | 0.00 | 0.20 | 0.06 | 86 | 1018.0 |